User: anonymous   Login
Location: Unspecified
(0.0000°N, 0.0000°E)
Time: 21:19:17
(UTC+01:00)
Language:

DFH-1 - Orbit

View from above orbital plane
View from above orbital plane
View from above satellite
View from above satellite

Ground track
Ground track

The orbit data is extracted from the following two-line orbital elements,

1  4382U 70034A   18344.18088209  .00000187  00000-0  41618-4 0  9997
2  4382  68.4245 222.9343 1053295 276.6855  71.5609 13.07723277286088
Epoch (UTC): 10 December 2018 04:20:28
Eccentricity: 0.1053295
inclination: 68.4245°
perigee height: 430 km
apogee height: 2033 km
right ascension of ascending node: 222.9343°
argument of perigee: 276.6855°
revolutions per day: 13.07723277
mean anomaly at epoch: 71.5609°
orbit number at epoch: 28608

The dashed part of the orbit path shows where the satellite is in the earth's shadow,  

DLR